Location: S�tio Afonso Gruber
(26.1760°S, 49.5250°W)
Time: 22:56:29
(UTC+00:00)

Cosmos 1500 - Pass Details

Date: 07 June 2020
Orbit: 498 x 520 km, 82.5° (Epoch: 10 July)

Event Time Altitude Azimuth Distance (km) Brightness Sun altitude
Rises 09:24:33 0° 193° (SSW) 2,626 6.5 -8.3°
Reaches altitude 10° 09:26:43 10° 198° (SSW) 1,737 5.5 -7.8°
Maximum altitude 09:30:25 50° 273° (W) 659 3.4 -7.1°
Drops below altitude 10° 09:34:05 10° 349° (NNW) 1,724 6.0 -6.3°
Sets 09:36:14 0° 354° (N) 2,605 7.0 -5.9°
